TimeAST,TemperatureF,Dew PointF,Humidity,Sea Level PressureIn,VisibilityMPH,Wind Direction,Wind SpeedMPH,Gust SpeedMPH,PrecipitationIn,Events,Conditions,WindDirDegrees,DateUTC
12:00 AM,78.8,69.8,74,29.95,6.2,ENE,9.2,-,N/A,,Partly Cloudy,70,2012-11-30 04:00:00
1:00 AM,78.8,69.8,74,29.95,6.2,ENE,5.8,-,N/A,,Partly Cloudy,60,2012-11-30 05:00:00
2:00 AM,78,69,67,29.95,34,ENE,8.1,,,,Partly Cloudy,70,2012-11-30 06:00:00
2:00 AM,78.8,69.8,74,29.95,6.2,ENE,8.1,-,N/A,,Partly Cloudy,70,2012-11-30 06:00:00
3:00 AM,77.0,69.8,78,29.92,6.2,Variable,3.5,-,N/A,,Partly Cloudy,0,2012-11-30 07:00:00
5:00 AM,77,70,73,29.91,34,NE,5.8,,,,Scattered Clouds,50,2012-11-30 09:00:00
5:00 AM,77.0,69.8,78,29.89,6.2,NE,5.8,-,N/A,,Partly Cloudy,50,2012-11-30 09:00:00
6:00 AM,77.0,69.8,78,29.92,6.2,SE,6.9,-,N/A,Rain,Light Rain Showers,130,2012-11-30 10:00:00
8:00 AM,79,72,73,29.96,8,ENE,9.2,,,,Mostly Cloudy,60,2012-11-30 12:00:00
8:00 AM,78.8,71.6,78,29.95,6.2,ENE,9.2,-,N/A,Rain,Light Rain Showers,60,2012-11-30 12:00:00
8:21 AM,78.8,71.6,78,29.98,6.2,ENE,10.4,-,N/A,Rain,Light Rain Showers,70,2012-11-30 12:21:00
9:00 AM,78.8,73.4,83,29.98,6.2,ESE,4.6,-,N/A,,Mostly Cloudy,120,2012-11-30 13:00:00
9:31 AM,80.6,73.4,79,29.98,6.2,ESE,6.9,-,N/A,,Mostly Cloudy,120,2012-11-30 13:31:00
10:00 AM,80.6,73.4,79,29.98,6.2,ESE,8.1,-,N/A,,Mostly Cloudy,120,2012-11-30 14:00:00
11:00 AM,81,71,66,29.98,19,East,9.2,,,,Partly Cloudy,90,2012-11-30 15:00:00
11:00 AM,80.6,71.6,74,29.98,6.2,East,9.2,-,N/A,,Scattered Clouds,90,2012-11-30 15:00:00
12:00 PM,84.2,71.6,66,29.95,6.2,ESE,5.8,-,N/A,,Mostly Cloudy,120,2012-11-30 16:00:00
1:00 PM,84.2,69.8,62,29.92,6.2,ESE,6.9,-,N/A,,Mostly Cloudy,120,2012-11-30 17:00:00
2:00 PM,84,72,59,29.91,44,ESE,8.1,,,,Partly Cloudy,110,2012-11-30 18:00:00
2:00 PM,84.2,71.6,66,29.89,6.2,ESE,8.1,-,N/A,,Partly Cloudy,110,2012-11-30 18:00:00
3:00 PM,84.2,71.6,66,29.89,6.2,ESE,9.2,-,N/A,,Scattered Clouds,110,2012-11-30 19:00:00
4:00 PM,82.4,71.6,70,29.89,6.2,East,6.9,-,N/A,,Scattered Clouds,90,2012-11-30 20:00:00
5:00 PM,82,71,62,29.91,31,ESE,9.2,,,,Mostly Cloudy,110,2012-11-30 21:00:00
5:00 PM,82.4,71.6,70,29.89,6.2,ESE,9.2,-,N/A,,Scattered Clouds,110,2012-11-30 21:00:00
5:44 PM,80.6,71.6,74,29.92,2.5,ENE,8.1,-,N/A,,Scattered Clouds,70,2012-11-30 21:44:00
6:00 PM,77.0,71.6,83,29.92,3.1,ENE,9.2,-,N/A,Rain,Rain Showers,70,2012-11-30 22:00:00
7:00 PM,78.8,71.6,78,29.92,6.2,ENE,5.8,-,N/A,,Mostly Cloudy,70,2012-11-30 23:00:00
8:00 PM,79,71,72,29.95,19,,3.5,,,,Partly Cloudy,,2012-12-01 00:00:00
8:00 PM,78.8,71.6,78,29.95,6.2,NE,4.6,-,N/A,,Mostly Cloudy,50,2012-12-01 00:00:00
10:00 PM,78.8,71.6,78,29.95,6.2,East,8.1,-,N/A,,Scattered Clouds,90,2012-12-01 02:00:00
11:00 PM,78,70,71,29.95,22,East,6.9,,,,Partly Cloudy,90,2012-12-01 03:00:00
11:00 PM,77.0,69.8,78,29.95,6.2,East,6.9,-,N/A,,Scattered Clouds,80,2012-12-01 03:00:00